Date,TemperatureHighF,TemperatureAvgF,TemperatureLowF,DewpointHighF,DewpointAvgF,DewpointLowF,HumidityHigh,HumidityAvg,HumidityLow,PressureMaxIn,PressureMinIn,WindSpeedMaxMPH,WindSpeedAvgMPH,GustSpeedMaxMPH,PrecipitationSumIn
2012-1-1,57.0,45.1,33.0,50.6,35.1,17.2,90,68,45,30.18,29.77,40,12,40,0.00
2012-1-2,33.0,25.6,18.0,24.8,19.2,14.5,95,77,55,30.25,30.08,37,11,37,0.00
2012-1-3,28.0,20.6,13.0,16.9,12.9,9.6,89,73,54,30.41,30.22,75,6,75,0.00
2012-1-4,42.0,31.6,21.0,27.8,19.8,12.8,77,62,46,30.23,29.97,75,6,75,0.00
2012-1-5,50.0,38.4,28.0,32.6,28.6,25.4,93,70,44,30.14,29.95,73,4,73,0.00
2012-1-6,61.0,47.9,39.0,40.1,33.9,29.8,74,59,40,29.97,29.82,21,6,21,0.00
2012-1-7,54.0,48.3,35.0,50.7,37.6,24.8,94,69,36,30.17,29.81,67,5,67,0.00
2012-1-8,50.0,39.2,30.0,35.3,29.6,25.6,91,70,48,30.30,30.16,75,2,75,0.00
2012-1-9,51.0,40.7,36.0,36.0,30.7,26.5,82,68,50,30.21,30.07,75,6,75,0.00
2012-1-10,55.0,40.1,28.0,36.3,31.2,25.3,93,73,44,30.11,29.85,75,4,75,0.00
2012-1-11,56.0,47.1,39.0,55.2,44.6,31.4,100,92,65,29.86,29.40,69,6,69,1.03
2012-1-12,46.0,36.0,18.0,46.0,35.8,16.6,100,99,89,29.72,29.37,39,12,39,0.13
2012-1-13,21.0,18.6,15.0,18.5,15.8,11.0,94,88,83,30.09,29.72,33,10,33,0.00
2012-1-14,32.0,24.2,15.0,27.0,20.8,14.1,99,88,65,30.17,30.01,75,4,75,0.01
2012-1-15,33.0,25.9,16.0,26.0,22.8,15.3,100,89,69,30.46,30.16,75,5,75,0.00
2012-1-16,54.0,43.2,26.0,49.0,36.0,23.7,92,76,62,30.28,29.93,23,8,23,0.03
2012-1-17,61.0,49.4,33.0,57.7,44.7,29.3,97,84,70,30.12,29.70,41,12,41,0.38
2012-1-18,34.0,29.4,25.0,29.3,21.9,18.2,86,74,60,30.29,30.07,75,6,75,0.00
2012-1-19,39.0,31.0,23.0,30.1,25.6,19.7,90,81,66,30.07,29.90,13,5,13,0.00
2012-1-20,37.0,29.7,23.0,34.1,25.7,20.2,91,85,75,30.14,29.73,15,4,33,0.00
2012-1-21,38.0,29.0,27.0,34.1,28.7,26.0,100,99,89,30.17,29.73,19,5,19,0.00
2012-1-22,56.0,40.1,29.0,53.7,39.5,29.0,100,98,88,30.14,29.80,26,8,26,0.27
2012-1-23,60.0,51.4,41.0,55.1,47.1,36.8,100,86,69,30.01,29.63,32,10,32,0.68
2012-1-24,47.0,38.2,29.0,37.4,33.9,27.5,99,85,63,30.32,30.01,75,4,75,0.00
2012-1-25,39.0,34.6,28.0,38.0,33.9,26.8,100,97,90,30.32,30.03,49,3,74,0.15
2012-1-26,61.0,50.8,38.0,59.4,50.6,38.0,100,99,95,30.03,29.44,24,6,26,0.63
2012-1-27,45.0,37.8,36.0,45.0,36.8,33.9,100,96,90,30.07,29.50,75,18,75,0.00
2012-1-28,43.0,36.6,29.0,39.0,28.9,19.1,100,76,41,30.29,29.93,75,22,75,0.02
2012-1-29,48.0,35.9,27.0,27.5,23.1,19.4,82,62,37,30.29,30.08,75,30,75,0.00
2012-1-30,58.0,41.4,24.0,34.4,28.4,19.5,86,62,40,30.29,30.14,75,18,75,0.00
2012-1-31,63.0,52.2,45.0,40.2,33.6,28.8,65,49,38,30.20,30.05,40,5,41,0.00
2012-2-1,62.0,53.8,50.0,55.8,50.6,39.0,100,89,61,30.13,30.02,75,4,75,0.17
2012-2-2,58.0,46.4,37.0,51.0,40.9,32.9,100,84,48,30.38,30.03,75,5,75,0.01
2012-2-3,58.0,45.2,35.0,41.8,36.4,32.9,94,73,48,30.44,30.24,73,4,73,0.00
2012-2-4,48.0,43.0,40.0,44.0,39.3,32.5,100,88,58,30.25,30.02,16,3,63,0.62
2012-2-5,49.0,39.5,30.0,43.0,37.2,29.5,100,92,64,30.25,30.02,75,7,75,0.02
2012-2-6,49.0,36.6,25.0,38.0,30.7,25.0,100,81,53,30.24,30.15,75,2,75,0.00
2012-2-7,47.0,35.6,26.0,36.5,31.1,25.0,99,84,59,30.25,30.17,11,2,11,0.00
2012-2-8,36.0,33.4,31.0,35.0,31.9,29.4,100,94,85,30.30,30.21,73,3,73,0.03
2012-2-9,36.0,33.4,31.0,32.5,29.7,26.7,98,86,73,30.38,30.19,75,2,75,0.01
2012-2-10,34.0,31.7,30.0,33.0,29.4,26.3,100,91,77,30.20,29.89,75,2,75,0.02
2012-2-11,33.0,23.1,18.0,33.0,17.4,9.5,100,79,65,30.33,29.87,31,12,31,0.01
2012-2-12,35.0,23.7,15.0,21.3,15.5,9.5,83,71,57,30.36,30.25,21,6,21,0.00
2012-2-13,38.0,29.6,20.0,25.5,20.4,16.0,89,70,48,30.27,29.94,75,3,75,0.00
2012-2-14,38.0,35.4,33.0,38.0,33.8,24.9,100,94,67,30.11,29.87,20,4,20,0.35
2012-2-15,50.0,41.0,29.0,42.7,37.3,28.5,100,87,74,30.23,30.00,11,3,11,0.02
2012-2-16,49.0,46.3,41.0,49.0,45.0,35.6,100,95,78,30.18,29.96,50,6,50,0.44
2012-2-17,54.0,42.2,31.0,41.8,32.6,28.4,99,72,39,30.23,30.09,75,16,75,0.00
2012-2-18,52.0,41.2,30.0,37.7,31.2,26.5,90,69,46,30.09,30.01,75,5,75,0.00
2012-2-19,38.0,34.8,29.0,29.4,26.4,23.0,79,71,66,30.12,29.91,27,6,27,0.00
2012-2-20,48.0,34.1,20.0,31.7,26.4,18.1,95,75,48,30.32,30.05,75,5,75,0.00
2012-2-21,52.0,44.1,33.0,45.7,37.3,28.4,91,77,65,30.05,29.84,39,9,39,0.06
2012-2-22,58.0,47.9,38.0,45.8,39.4,35.8,93,74,50,29.89,29.47,75,8,75,0.04
2012-2-23,66.0,51.2,38.0,54.2,47.8,37.7,100,89,63,29.61,29.31,75,7,75,0.18
2012-2-24,59.0,45.2,34.0,59.0,39.4,27.6,100,80,58,30.00,29.33,47,12,75,0.09
2012-2-25,38.0,32.3,25.0,29.1,21.5,18.3,82,65,48,30.35,29.99,42,12,42,0.00
2012-2-26,54.0,37.5,20.0,28.6,23.5,17.2,90,61,34,30.38,30.19,75,12,75,0.00
2012-2-27,62.0,50.3,40.0,39.9,31.4,24.5,59,49,35,30.44,30.21,75,6,75,0.00
2012-2-28,66.0,49.0,33.0,41.1,33.5,24.6,75,57,39,30.45,30.00,75,9,75,0.00
2012-2-29,64.0,60.7,56.0,63.1,56.9,38.6,100,88,52,30.02,29.64,44,17,44,1.37
2012-3-1,60.0,50.3,43.0,43.2,36.9,34.1,80,61,46,29.92,29.72,75,8,75,0.00
2012-3-2,71.0,54.2,42.0,64.6,47.5,35.2,96,78,64,29.80,29.28,41,10,41,0.23
2012-3-3,49.0,39.7,32.0,36.3,31.0,25.0,95,73,48,29.86,29.67,44,18,44,0.00
2012-3-4,43.0,33.8,27.0,32.4,25.8,21.8,94,73,50,29.89,29.82,75,18,75,0.00
2012-3-5,34.0,30.2,25.0,32.2,27.5,21.4,100,90,74,30.44,29.80,75,5,75,0.20
2012-3-6,66.0,43.9,25.0,38.1,28.9,22.7,94,61,31,30.44,30.22,37,6,37,0.07
2012-3-7,69.0,56.9,47.0,51.3,40.7,27.8,64,55,41,30.36,30.15,40,10,40,0.00
2012-3-8,59.0,52.9,37.0,57.7,48.6,34.6,100,86,64,30.27,30.00,47,9,47,0.69
2012-3-9,50.0,40.1,33.0,35.3,28.7,21.0,94,67,40,30.47,30.25,75,11,75,0.00
2012-3-10,57.0,40.7,28.0,30.3,25.6,21.0,77,57,34,30.53,30.35,75,4,75,0.00
2012-3-11,68.0,53.3,37.0,40.1,32.9,25.5,64,47,29,30.43,30.22,20,4,20,0.00
2012-3-12,64.0,59.2,53.0,60.8,53.0,37.3,97,81,46,30.23,30.02,21,7,23,0.19
2012-3-13,74.0,64.6,57.0,63.6,58.6,52.5,98,82,55,30.15,30.04,27,5,27,0.00
2012-3-14,78.0,64.4,51.0,61.3,55.2,50.5,99,75,49,30.21,30.11,75,4,75,0.00
2012-3-15,80.0,64.8,58.0,66.6,58.9,52.5,100,82,58,30.22,30.10,19,5,19,0.87
2012-3-16,67.0,61.2,55.0,63.4,59.1,55.0,100,93,80,30.21,30.09,37,5,37,0.08
2012-3-17,76.0,65.4,58.0,65.1,60.9,57.2,100,87,66,30.19,30.08,75,4,75,0.68
2012-3-18,78.0,67.1,59.0,65.2,61.7,58.7,100,84,61,30.21,30.07,45,5,45,0.07
2012-3-19,81.0,69.4,60.0,62.5,59.4,55.2,93,72,51,30.16,30.05,75,7,75,0.00
2012-3-20,87.0,72.9,62.0,62.9,59.2,56.1,82,64,42,30.16,30.04,75,2,75,0.00
2012-3-21,85.0,72.3,60.0,64.1,59.9,54.8,88,66,47,30.20,30.06,1,0,1,0.00
2012-3-22,81.0,71.0,60.0,63.9,60.0,55.1,91,69,53,30.18,30.06,75,8,75,0.00
2012-3-23,73.0,66.4,63.0,66.5,62.8,60.4,97,89,71,30.10,29.76,75,12,75,0.08
2012-3-24,64.0,57.2,50.0,62.1,51.2,44.4,100,82,54,29.87,29.77,31,4,31,0.19
2012-3-25,69.0,57.9,47.0,57.8,51.9,44.2,94,81,61,30.01,29.84,75,5,75,0.00
2012-3-26,65.0,54.9,43.0,55.0,44.7,31.4,99,73,34,30.27,30.01,39,5,39,0.00
2012-3-27,68.0,50.3,36.0,45.4,36.0,26.5,73,59,41,30.29,30.02,19,6,19,0.00
2012-3-28,78.0,65.7,56.0,64.4,54.5,41.9,79,67,55,30.02,29.88,27,6,27,0.00
2012-3-29,70.0,59.5,49.0,50.7,44.8,39.6,78,59,46,30.08,29.94,11,4,13,0.00
2012-3-30,78.0,63.0,51.0,64.4,51.9,41.8,92,68,55,29.98,29.71,20,6,20,0.27
2012-3-31,59.0,54.9,45.0,59.0,53.1,43.4,100,94,83,29.93,29.76,75,4,75,0.17
2012-4-1,71.0,54.3,43.0,63.9,52.5,42.0,100,94,75,29.91,29.68,74,4,74,0.27
2012-4-2,74.0,62.5,53.0,60.6,51.9,40.6,98,72,42,29.91,29.67,24,4,24,0.00
2012-4-3,84.0,68.1,54.0,67.2,54.4,40.4,76,62,50,29.93,29.79,19,4,23,0.00
2012-4-4,76.0,64.6,55.0,65.8,60.1,52.7,98,86,68,29.86,29.71,16,4,18,0.54
2012-4-5,64.0,52.7,42.0,53.3,39.8,33.8,94,64,40,29.93,29.74,34,6,34,0.07
2012-4-6,64.0,48.5,35.0,39.7,34.3,29.9,89,61,31,30.20,29.93,19,5,19,0.00
2012-4-7,69.0,52.5,37.0,38.7,32.8,27.8,71,49,28,30.31,30.17,75,4,75,0.00
2012-4-8,65.0,56.2,47.0,48.5,38.9,29.6,78,55,31,30.20,30.13,39,6,74,0.00
2012-4-9,67.0,53.6,39.0,42.6,34.9,28.9,82,52,28,30.15,29.92,75,10,75,0.00
2012-4-10,57.0,49.2,40.0,33.3,29.0,22.4,63,46,32,30.06,29.92,75,11,75,0.00
2012-4-11,51.0,40.4,31.0,31.7,28.3,24.9,87,63,46,30.23,30.05,75,5,75,0.00
2012-4-12,62.0,45.0,30.0,38.5,32.6,28.0,94,66,37,30.29,30.12,75,2,75,0.00
2012-4-13,68.0,52.5,36.0,45.2,37.8,32.5,88,61,33,30.23,30.12,75,3,75,0.00
2012-4-14,75.0,61.2,51.0,62.2,50.5,40.3,92,68,54,30.16,29.98,27,4,27,0.13
2012-4-15,81.0,69.4,60.0,61.7,56.5,51.8,78,65,47,30.07,29.93,26,7,26,0.00
2012-4-16,74.0,67.3,56.0,64.3,56.7,47.2,90,70,49,30.22,29.89,30,9,30,0.00
2012-4-17,65.0,55.6,46.0,51.1,45.4,41.3,97,70,47,30.35,30.21,75,2,75,0.00
2012-4-18,74.0,59.3,49.0,48.9,45.9,43.9,87,64,37,30.26,30.03,75,3,75,0.00
2012-4-19,77.0,60.0,44.0,56.8,48.7,43.2,100,71,37,30.09,29.90,75,3,75,0.00
2012-4-20,75.0,62.9,52.0,61.0,53.6,45.3,88,72,51,29.91,29.72,23,5,37,0.00
2012-4-21,57.0,47.2,44.0,53.5,46.4,43.1,100,97,88,29.94,29.78,36,6,36,0.46
2012-4-22,50.0,44.4,39.0,43.4,37.8,32.7,96,79,60,29.92,29.80,18,6,25,0.00
2012-4-23,59.0,47.2,38.0,34.6,27.8,19.9,81,51,29,29.85,29.71,41,11,41,0.00
2012-4-24,63.0,49.7,34.0,48.6,31.8,18.8,91,53,27,29.79,29.71,75,12,75,0.01
2012-4-25,75.0,59.5,49.0,63.1,55.1,47.8,100,87,58,29.81,29.67,57,6,60,0.29
2012-4-26,77.0,66.7,53.0,66.9,59.9,44.2,99,81,54,30.00,29.62,26,7,26,0.01
2012-4-27,66.0,52.6,40.0,44.2,35.1,29.0,80,53,32,30.19,29.99,75,4,75,0.00
2012-4-28,76.0,58.2,45.0,61.6,48.7,35.9,99,72,55,30.11,29.93,42,6,44,0.10
2012-4-29,76.0,60.7,45.0,64.3,56.1,45.0,100,86,65,30.19,29.99,56,5,56,0.32
2012-4-30,81.0,68.9,57.0,66.9,61.5,55.9,99,79,52,30.10,29.91,75,5,75,0.17
2012-5-1,82.0,70.2,62.0,77.0,67.0,62.0,100,90,62,30.09,29.92,75,4,75,0.07
2012-5-2,88.0,76.6,67.0,69.5,66.5,63.0,90,73,49,30.07,29.96,58,5,58,0.00
2012-5-3,82.0,73.2,62.0,70.2,66.6,61.4,99,81,61,30.14,30.01,75,3,75,0.00
2012-5-4,83.0,72.6,66.0,71.4,67.0,63.3,97,84,64,30.05,29.87,75,4,75,0.00
2012-5-5,83.0,70.1,63.0,70.7,66.5,61.5,100,89,64,30.01,29.88,70,7,70,1.11
2012-5-6,90.0,73.3,62.0,72.1,65.8,62.0,100,80,45,30.06,29.91,75,3,75,0.00
2012-5-7,83.0,71.9,63.0,69.1,65.4,61.5,99,82,59,29.92,29.75,73,4,73,0.33
2012-5-8,73.0,66.4,61.0,66.0,61.7,55.0,100,86,57,29.91,29.77,75,6,75,0.87
2012-5-9,70.0,64.1,55.0,57.1,49.3,43.2,94,61,42,29.91,29.78,68,8,68,0.00
2012-5-10,69.0,56.7,45.0,49.0,45.6,39.2,98,70,41,30.04,29.87,75,4,75,0.00
2012-5-11,76.0,59.4,44.0,49.9,45.3,39.6,96,65,32,30.20,30.03,75,3,75,0.00
2012-5-12,76.0,62.5,49.0,61.8,52.3,45.9,96,72,43,30.28,30.16,75,3,75,0.01
2012-5-13,68.0,61.2,59.0,65.0,61.1,59.0,100,100,96,30.19,30.04,75,4,75,1.57
2012-5-14,75.0,63.2,57.0,64.7,60.0,56.2,100,90,59,30.05,29.97,61,3,61,0.37
2012-5-15,80.0,65.6,51.0,66.2,56.8,51.0,100,77,45,30.04,29.95,75,2,75,0.01
2012-5-16,81.0,68.0,54.0,62.7,57.6,52.8,99,73,42,30.00,29.90,75,3,75,0.00
2012-5-17,78.0,64.8,53.0,59.7,49.4,41.5,84,59,39,30.11,30.00,75,5,75,0.00
2012-5-18,85.0,67.3,51.0,61.0,52.8,45.1,87,62,39,30.11,30.01,75,3,75,0.00
2012-5-19,88.0,70.9,54.0,65.6,59.3,52.3,96,71,42,30.14,30.05,75,2,75,0.00
2012-5-20,89.0,73.1,59.0,66.5,61.2,55.8,95,69,44,30.17,30.03,75,4,75,0.00
2012-5-21,79.0,68.9,60.0,67.4,61.8,56.4,92,79,61,30.04,29.92,75,5,75,0.00
2012-5-22,75.0,66.5,58.0,63.4,60.5,55.0,96,82,64,29.96,29.86,75,4,75,0.00
2012-5-23,81.0,69.1,57.0,66.2,61.8,56.7,100,80,54,29.93,29.84,75,3,75,0.00
2012-5-24,84.0,72.4,60.0,68.5,62.3,59.1,100,74,47,29.95,29.84,75,4,75,0.00
2012-5-25,89.0,77.5,68.0,70.5,64.9,58.4,87,66,49,30.09,29.90,75,5,75,0.00
2012-5-26,94.0,78.2,65.0,72.9,67.7,64.1,99,74,42,30.18,30.06,75,3,75,0.00
2012-5-27,93.0,78.8,65.0,73.3,68.0,63.8,98,73,42,30.12,29.98,75,2,75,0.00
2012-5-28,91.0,79.6,68.0,73.8,70.4,66.2,96,75,51,30.02,29.88,75,3,75,0.00
2012-5-29,78.0,73.1,66.0,71.0,68.5,65.1,97,86,72,29.94,29.81,75,4,75,0.00
2012-5-30,82.0,69.2,58.0,71.8,60.5,53.8,100,77,45,29.90,29.83,75,5,75,0.01
2012-5-31,85.0,67.6,50.0,63.9,55.6,48.3,100,71,34,29.91,29.64,75,6,75,0.49
2012-6-1,70.0,59.9,54.0,66.0,58.6,52.2,100,96,83,29.91,29.61,50,17,50,0.50
2012-6-2,69.0,58.8,48.0,55.0,50.6,46.3,100,77,49,29.96,29.87,75,24,75,0.00
2012-6-3,79.0,66.9,53.0,61.9,56.9,49.8,97,73,44,29.94,29.81,75,10,75,0.00
2012-6-4,73.0,65.1,59.0,63.3,60.7,57.6,99,86,65,29.88,29.78,75,10,75,0.00
2012-6-5,75.0,63.6,55.0,59.7,54.7,50.5,100,75,47,29.93,29.79,75,4,75,0.00
2012-6-6,77.0,62.8,52.0,57.1,53.7,51.2,99,75,45,30.04,29.91,75,5,75,0.00
2012-6-7,84.0,67.2,50.0,60.0,53.3,49.5,99,67,34,30.09,30.02,75,5,75,0.00
2012-6-8,87.0,70.1,53.0,60.7,54.7,50.8,97,63,32,30.11,29.98,75,2,75,0.00
2012-6-9,88.0,72.5,56.0,64.3,57.6,53.7,94,64,35,30.07,29.95,75,4,75,0.00
2012-6-10,86.0,73.8,60.0,66.8,62.6,57.4,92,70,45,30.07,29.99,75,3,75,0.00
2012-6-11,81.0,72.0,66.0,75.5,68.7,62.5,100,90,72,30.01,29.87,75,3,75,1.20
2012-6-12,84.0,74.1,67.0,73.8,66.9,52.2,100,81,55,30.01,29.89,75,5,75,0.01
2012-6-13,83.0,70.6,58.0,61.6,55.5,49.4,76,60,43,30.10,30.01,9,4,9,0.00
2012-6-14,86.0,70.0,56.0,58.6,53.6,49.6,84,60,33,30.13,30.06,75,3,75,0.00
2012-6-15,90.0,74.7,58.0,71.1,63.1,52.7,89,69,44,30.15,30.05,75,3,75,0.00
2012-6-16,85.0,75.8,68.0,72.2,68.3,65.2,94,78,58,30.21,30.06,40,4,40,0.00
2012-6-17,80.0,73.0,68.0,73.2,69.2,66.3,99,88,73,30.08,29.94,75,8,75,0.34
2012-6-18,87.0,77.2,68.0,69.7,66.6,64.0,99,72,49,30.03,29.92,75,11,75,0.00
2012-6-19,90.0,79.1,66.0,70.5,66.3,61.7,89,66,47,30.15,30.00,75,7,75,0.00
2012-6-20,92.0,79.0,66.0,73.2,67.6,64.2,95,71,46,30.19,30.04,75,2,75,0.00
2012-6-21,90.0,79.2,67.0,71.2,67.6,64.5,97,71,46,30.09,29.92,73,4,75,0.00
2012-6-22,87.0,75.7,67.0,71.4,65.3,58.7,98,73,40,29.98,29.89,55,4,55,0.00
2012-6-23,91.0,77.1,64.0,64.9,59.8,56.6,86,58,33,30.04,29.94,75,3,75,0.00
2012-6-24,92.0,80.5,67.0,66.7,61.9,57.8,80,55,37,30.04,29.91,75,3,75,0.00
2012-6-25,88.0,76.8,66.0,68.3,61.3,48.8,92,62,35,29.96,29.86,21,4,21,0.00
2012-6-26,83.0,69.0,54.0,53.4,49.3,44.0,73,51,32,30.02,29.93,25,5,25,0.00
2012-6-27,90.0,73.0,54.0,61.1,53.9,49.9,90,56,29,30.06,29.94,75,3,75,0.00
2012-6-28,100.0,81.0,61.0,66.5,61.4,56.1,87,56,31,29.98,29.85,75,9,75,0.00
2012-6-29,101.0,83.4,72.0,76.2,67.8,61.8,78,60,44,29.94,29.80,75,6,75,0.00
2012-6-30,100.0,83.7,67.0,73.8,68.5,64.6,94,64,34,29.93,29.82,75,4,75,0.00
2012-7-1,101.0,84.8,70.0,71.4,67.2,60.0,90,59,33,30.11,29.88,75,5,75,0.05
2012-7-2,95.0,80.7,66.0,72.7,67.7,63.1,95,67,41,30.07,29.95,75,7,75,0.01
2012-7-3,95.0,81.1,68.0,70.0,67.8,65.3,93,66,42,30.05,29.89,75,7,75,0.00
2012-7-4,98.0,84.1,70.0,73.6,70.3,67.3,93,66,39,30.03,29.90,75,5,75,0.00
2012-7-5,97.0,82.4,75.0,75.7,70.7,65.4,92,70,39,30.01,29.92,75,4,75,0.00
2012-7-6,104.0,85.4,68.0,72.6,68.3,64.0,89,61,33,30.03,29.92,75,5,75,0.00
2012-7-7,104.0,88.3,72.0,74.8,70.5,66.5,91,60,32,30.03,29.90,13,2,13,0.00
2012-7-8,149.0,86.6,73.0,99.9,75.3,68.9,100,71,42,30.01,29.85,75,4,75,2.21
2012-7-9,84.0,75.1,66.0,75.0,69.2,62.7,100,83,50,30.04,29.96,75,3,75,0.00
2012-7-10,94.0,79.0,65.0,68.1,64.0,58.7,97,65,34,30.04,29.96,75,3,75,0.00
2012-7-11,96.0,80.0,68.0,68.6,65.3,61.8,88,64,35,30.07,30.00,75,3,75,0.00
2012-7-12,87.0,76.2,68.0,71.5,68.5,65.9,94,78,54,30.12,30.05,43,5,43,0.00
2012-7-13,78.0,72.5,69.0,72.8,70.1,67.9,99,92,82,30.13,30.05,75,4,75,0.00
2012-7-14,87.0,74.9,70.0,75.1,72.2,70.0,100,92,59,30.16,30.07,75,5,75,0.30
2012-7-15,87.0,76.7,69.0,75.8,72.4,69.0,100,88,66,30.20,30.05,75,4,75,0.00
2012-7-16,92.0,80.6,70.0,76.1,73.4,69.7,100,80,55,30.12,29.94,75,7,75,0.00
2012-7-17,94.0,82.6,72.0,76.3,73.3,70.2,96,76,50,30.01,29.87,75,6,75,0.00
2012-7-18,97.0,79.8,69.0,77.7,73.3,66.3,100,82,45,30.05,29.88,47,6,53,0.98
2012-7-19,86.0,75.1,69.0,80.1,72.9,69.0,100,93,75,30.02,29.85,75,7,75,0.04
2012-7-20,84.0,73.8,70.0,77.4,71.8,66.6,100,94,74,30.03,29.87,45,9,45,0.37
2012-7-21,85.0,73.8,64.0,68.7,66.3,62.8,97,79,54,30.11,30.01,75,3,75,0.00
2012-7-22,90.0,74.4,62.0,74.1,65.8,62.0,100,79,45,30.19,30.09,75,2,75,0.00
2012-7-23,92.0,85.6,73.0,77.1,74.9,72.4,98,71,56,30.16,30.01,14,6,14,0.00
2012-7-24,91.0,81.8,75.0,78.3,74.9,71.6,96,80,62,30.03,29.90,34,6,34,0.05
2012-7-25,96.0,84.1,73.0,78.1,75.0,71.9,100,76,50,29.96,29.81,75,4,75,0.00
2012-7-26,94.0,81.7,70.0,78.1,73.8,67.7,98,78,54,29.87,29.71,49,8,49,0.61
2012-7-27,109.0,76.8,65.0,83.0,72.3,61.6,100,88,56,30.02,29.80,50,9,50,1.40
2012-7-28,83.0,72.7,66.0,72.2,67.4,64.9,100,85,58,30.09,29.95,75,6,75,0.00
2012-7-29,90.0,75.0,64.0,69.9,65.9,62.4,100,77,44,30.13,30.00,75,19,75,0.00
2012-7-30,92.0,77.0,64.0,71.8,67.0,63.4,100,75,43,30.05,29.93,75,16,75,0.00
2012-7-31,91.0,78.8,67.0,73.8,68.7,65.5,97,74,47,29.96,29.86,75,1,75,0.00
2012-8-1,92.0,80.0,69.0,74.1,69.7,65.2,98,74,43,29.92,29.83,75,10,75,0.00
2012-8-2,95.0,79.8,65.0,72.1,68.2,63.8,98,71,43,29.93,29.84,75,20,75,0.00
2012-8-3,83.0,75.0,72.0,74.4,70.4,66.7,100,86,66,29.97,29.85,75,25,75,0.32
2012-8-4,89.0,79.0,72.0,79.2,75.2,72.0,100,89,70,30.06,29.94,75,9,75,0.01
2012-8-5,82.0,77.9,75.0,76.5,74.5,72.5,97,89,79,30.13,30.02,75,14,75,0.01
2012-8-6,91.0,78.1,69.0,74.5,69.0,64.4,100,77,47,30.16,30.02,75,23,75,0.05
2012-8-7,92.0,77.7,65.0,72.5,67.2,61.9,100,74,43,30.04,29.94,75,23,75,0.00
2012-8-8,93.0,79.6,66.0,72.2,68.0,62.6,99,71,39,30.03,29.91,75,25,75,0.00
2012-8-9,89.0,75.2,67.0,73.8,69.0,61.9,99,83,54,29.96,29.76,75,8,75,0.05
2012-8-10,77.0,70.1,64.0,69.8,65.2,59.7,100,86,57,29.90,29.71,75,9,75,0.19
2012-8-11,78.0,65.9,55.0,61.0,57.4,52.8,98,76,43,30.02,29.88,75,24,75,0.00
2012-8-12,84.0,68.3,53.0,64.6,57.0,52.7,100,72,39,30.07,30.00,75,20,75,0.00
2012-8-13,81.0,71.4,61.0,66.3,62.3,58.6,97,75,52,30.04,29.89,75,18,75,0.00
2012-8-14,81.0,72.3,68.0,69.9,66.3,63.6,98,82,61,29.95,29.86,75,9,75,0.00
2012-8-15,89.0,73.4,65.0,68.9,63.4,58.9,97,74,38,30.02,29.92,75,13,75,0.00
2012-8-16,88.0,73.9,59.0,67.6,62.8,58.2,99,72,42,30.06,29.86,75,26,75,0.00
2012-8-17,81.0,70.3,65.0,70.2,63.9,56.3,100,83,50,29.97,29.88,75,23,75,0.00
2012-8-18,83.0,69.3,59.0,61.0,56.6,53.7,90,67,40,30.01,29.88,75,18,75,0.00
2012-8-19,82.0,70.5,60.0,61.7,55.1,51.5,89,61,38,29.93,29.84,75,21,75,0.00
2012-8-20,80.0,68.0,53.0,59.2,53.4,50.2,93,62,38,29.99,29.91,75,22,75,0.00
2012-8-21,82.0,66.2,55.0,61.0,57.0,52.6,97,75,42,30.11,29.99,75,10,75,0.00
2012-8-22,89.0,68.9,52.0,65.0,57.1,52.0,100,72,35,30.19,30.05,75,10,75,0.00
2012-8-23,93.0,73.2,56.0,66.0,58.0,54.2,98,65,31,30.16,30.06,75,16,75,0.00
2012-8-24,94.0,76.0,58.0,66.0,60.5,54.4,97,64,30,30.13,30.02,75,9,75,0.00
2012-8-25,95.0,77.4,62.0,67.1,62.0,56.2,94,64,31,30.15,30.05,75,20,75,0.00
2012-8-26,90.0,76.8,63.0,69.0,64.1,60.9,95,68,40,30.19,30.04,75,30,75,0.00
2012-8-27,89.0,75.8,68.0,75.1,68.6,63.3,100,80,51,30.11,29.97,75,31,75,0.10
2012-8-28,91.0,77.1,68.0,72.2,68.0,60.0,100,77,39,30.07,29.96,75,22,75,0.16
2012-8-29,89.0,74.9,64.0,63.1,60.3,57.1,88,63,38,30.08,29.99,75,26,75,0.00
2012-8-30,94.0,77.0,59.0,68.1,60.2,54.2,87,59,35,30.12,30.03,75,15,75,0.00
2012-8-31,88.0,78.8,70.0,74.2,71.1,66.2,97,78,61,30.22,30.09,75,6,75,0.00
2012-9-1,89.0,80.5,75.0,73.8,72.0,67.8,91,76,57,30.15,29.99,75,11,75,0.00
2012-9-2,81.0,75.9,71.0,74.8,71.7,68.5,100,87,72,30.02,29.82,75,27,75,1.29
2012-9-3,82.0,74.3,71.0,79.1,73.2,71.0,100,96,80,29.92,29.82,75,27,75,0.90
2012-9-4,86.0,76.6,70.0,75.8,72.8,70.0,100,89,67,29.93,29.83,75,19,75,0.00
2012-9-5,90.0,75.4,67.0,78.8,70.8,64.0,100,88,50,29.91,29.80,75,22,75,0.63
2012-9-6,85.0,73.9,66.0,71.8,69.3,66.0,100,87,61,30.00,29.89,75,23,75,0.00
2012-9-7,88.0,77.2,66.0,74.5,70.1,66.0,100,81,55,29.97,29.70,75,19,75,0.00
2012-9-8,79.0,66.2,58.0,71.2,60.9,53.5,100,85,53,29.95,29.67,75,30,75,1.04
2012-9-9,76.0,62.8,50.0,58.7,54.4,50.0,100,77,49,30.07,29.92,75,31,75,0.00
2012-9-10,80.0,65.1,55.0,59.1,54.2,49.3,97,72,39,30.21,30.07,75,16,75,0.00
2012-9-11,82.0,65.1,50.0,58.3,52.9,49.5,100,70,36,30.28,30.18,75,12,75,0.00
2012-9-12,84.0,68.6,55.0,65.0,59.9,53.6,98,77,45,30.31,30.21,75,20,75,0.00
2012-9-13,84.0,71.4,63.0,66.0,62.6,57.4,97,77,45,30.32,30.21,75,29,75,0.00
2012-9-14,81.0,66.8,58.0,66.5,61.3,55.1,100,84,53,30.29,30.19,75,21,75,0.00
2012-9-15,78.0,63.6,52.0,56.3,51.7,46.8,94,69,36,30.33,30.16,75,23,75,0.00
2012-9-16,82.0,67.7,58.0,60.1,54.2,50.6,88,64,39,30.18,30.02,75,21,75,0.00
2012-9-17,70.0,64.6,59.0,68.0,63.3,58.0,100,96,85,30.05,29.74,75,17,75,0.54
2012-9-18,83.0,63.0,52.0,70.0,59.4,43.3,100,89,61,30.03,29.64,23,0,23,0.22
2012-9-19,69.0,54.9,41.0,51.1,42.9,38.0,100,69,35,30.19,30.02,60,2,60,0.00
2012-9-20,77.0,60.0,43.0,54.9,49.1,41.7,97,71,42,30.10,29.94,43,0,43,0.00
2012-9-21,76.0,66.5,54.0,63.0,57.2,51.4,94,73,60,30.02,29.78,66,0,66,0.00
2012-9-22,73.0,64.4,46.0,59.7,49.8,34.8,88,61,34,30.15,29.77,0,0,0,0.00
2012-9-23,63.0,49.2,36.0,44.9,39.3,34.4,98,72,41,30.27,30.15,15,0,15,0.00
2012-9-24,67.0,52.6,36.0,48.9,40.1,35.0,100,67,36,30.29,30.07,66,0,72,0.00
2012-9-25,70.0,58.5,46.0,62.0,53.2,40.8,100,83,67,30.11,29.97,75,2,75,0.44
2012-9-26,78.0,68.4,62.0,68.9,63.7,59.0,99,85,67,30.16,30.01,75,8,75,0.10
2012-9-27,75.0,66.8,63.0,67.9,64.9,63.0,100,94,77,30.17,30.08,75,7,75,0.05
2012-9-28,71.0,64.6,61.0,69.0,64.1,61.0,100,98,85,30.12,30.02,75,8,75,0.03
2012-9-29,75.0,63.6,54.0,63.8,57.8,51.8,100,84,49,30.06,29.95,75,18,75,0.00
2012-9-30,73.0,60.3,46.0,61.4,53.1,46.0,100,80,51,29.98,29.81,75,29,75,0.00
2012-10-1,60.0,57.6,54.0,60.0,54.7,47.6,100,91,72,29.86,29.61,75,24,75,0.28
2012-10-2,74.0,65.2,59.0,72.0,63.2,59.0,100,94,70,29.92,29.62,75,19,75,0.26
2012-10-3,71.0,61.4,53.0,60.3,55.9,51.8,100,83,60,30.16,29.91,75,21,75,0.00
2012-10-4,76.0,62.0,50.0,62.1,56.0,50.0,100,83,55,30.27,30.16,75,20,75,0.00
2012-10-5,77.0,64.6,49.0,64.4,58.7,47.6,99,83,58,30.19,29.94,75,3,75,0.00
2012-10-6,59.0,48.2,40.0,47.9,39.3,31.2,100,75,36,30.18,29.99,50,0,50,0.07
2012-10-7,55.0,46.8,40.0,42.2,39.1,35.4,90,75,53,30.19,30.09,75,8,75,0.00
2012-10-8,57.0,45.9,40.0,43.1,38.5,34.6,93,76,51,30.26,30.12,75,12,75,0.00
2012-10-9,61.0,47.4,33.0,48.5,40.4,33.0,100,79,46,30.18,29.99,75,15,75,0.00
2012-10-10,58.0,49.7,40.0,49.2,41.7,32.7,98,76,47,30.25,29.97,75,22,75,0.00
2012-10-11,62.0,45.2,29.0,40.3,34.8,28.0,99,71,41,30.31,30.17,75,13,75,0.00
2012-10-12,70.0,52.1,38.0,48.3,42.6,35.9,95,73,45,30.35,30.20,75,10,75,0.00
2012-10-13,74.0,59.3,45.0,63.1,51.9,38.7,91,77,61,30.34,30.09,75,20,75,0.00
2012-10-14,72.0,66.0,61.0,63.3,59.4,54.8,95,80,68,30.09,29.77,43,27,43,0.16
2012-10-15,61.0,53.9,45.0,59.9,46.6,39.2,99,78,53,29.97,29.82,75,19,75,0.00
2012-10-16,67.0,51.4,35.0,46.9,41.4,34.5,99,72,44,30.02,29.82,45,10,45,0.00
2012-10-17,74.0,62.1,51.0,53.5,48.7,42.3,89,63,45,29.85,29.60,75,27,75,0.00
2012-10-18,64.0,57.5,52.0,54.4,43.9,31.8,98,63,31,29.71,29.52,75,7,75,0.12
2012-10-19,57.0,50.6,47.0,46.1,41.0,36.3,93,71,53,29.76,29.59,39,0,39,0.05
2012-10-20,51.0,47.4,38.0,46.6,44.1,37.2,97,89,79,30.01,29.75,0,0,0,0.00
2012-10-21,69.0,53.8,38.0,51.8,46.7,37.2,100,80,52,30.15,30.01,75,3,75,0.00
2012-10-22,76.0,62.0,50.0,58.3,51.6,46.0,90,70,50,30.17,30.06,75,5,75,0.00
2012-10-23,78.0,66.7,56.0,56.9,51.3,47.0,80,59,41,30.14,30.02,75,1,75,0.00
2012-10-24,78.0,66.8,58.0,59.3,54.3,50.5,84,65,47,30.17,30.05,75,16,75,0.03
2012-10-25,79.0,64.8,50.0,59.7,53.5,46.3,90,69,44,30.09,29.97,75,17,75,0.00
2012-10-26,64.0,53.7,45.0,56.0,50.5,45.0,100,89,73,30.12,29.99,75,2,75,0.09
2012-10-27,48.0,45.4,42.0,46.9,43.8,38.8,100,95,73,30.12,30.02,0,0,0,0.31
2012-10-28,47.0,44.9,42.0,40.5,38.3,34.6,88,78,71,30.07,29.99,0,0,0,0.00
2012-10-29,45.0,41.1,35.0,36.6,31.1,24.0,86,69,45,30.02,29.72,0,0,0,0.00
2012-10-30,43.0,38.6,36.0,39.0,35.7,29.5,100,90,59,29.73,29.56,39,13,39,0.21
2012-10-31,45.0,39.9,37.0,38.4,36.8,34.6,100,89,70,29.84,29.67,75,11,75,0.00
2012-11-1,53.0,43.8,34.0,39.1,30.8,23.6,97,64,34,29.90,29.82,75,4,75,0.00
2012-11-2,55.0,46.3,40.0,35.6,32.2,29.6,72,58,44,30.08,29.80,75,14,75,0.00
2012-11-3,47.0,38.4,30.0,41.7,35.0,27.4,100,88,68,30.17,30.02,75,1,75,0.04
2012-11-4,52.0,41.0,34.0,41.4,35.9,31.0,100,84,55,30.14,30.06,0,0,0,0.00
2012-11-5,54.0,39.3,30.0,38.5,32.3,28.0,96,77,53,30.15,30.04,75,15,75,0.00
2012-11-6,54.0,42.3,32.0,36.3,32.4,28.1,89,69,47,30.05,29.87,75,12,75,0.00
2012-11-7,54.0,43.7,38.0,41.7,36.2,29.0,100,76,51,30.08,29.85,75,11,75,0.08
2012-11-8,55.0,40.4,30.0,38.1,33.1,29.6,100,78,46,30.24,30.08,75,14,75,0.00
2012-11-9,60.0,45.2,30.0,44.2,37.2,29.0,97,76,53,30.27,30.13,75,19,75,0.00
2012-11-10,71.0,57.2,47.0,49.3,42.0,36.8,73,58,41,30.25,30.14,75,14,75,0.00
2012-11-11,69.0,59.3,50.0,49.6,41.5,36.7,66,52,35,30.30,30.11,39,12,39,0.00
2012-11-12,63.0,47.2,30.0,57.3,44.1,28.0,100,90,66,30.43,30.03,75,3,75,0.73
2012-11-13,46.0,33.2,24.0,34.1,26.8,23.5,100,80,48,30.50,30.41,75,15,75,0.00
2012-11-14,45.0,34.9,27.0,32.7,27.8,24.2,91,76,57,30.49,30.33,75,22,75,0.00
2012-11-15,51.0,37.0,26.0,35.0,29.5,24.8,95,76,49,30.36,30.28,75,5,75,0.00
2012-11-16,53.0,40.1,30.0,36.9,32.2,27.0,96,75,48,30.45,30.32,75,14,75,0.00
2012-11-17,62.0,44.8,33.0,38.6,33.4,29.1,95,67,39,30.51,30.42,75,8,75,0.00
2012-11-18,66.0,47.0,34.0,35.7,30.0,25.5,75,53,29,30.43,30.33,75,2,75,0.00
2012-11-19,61.0,47.0,35.0,42.3,35.7,27.8,82,66,46,30.36,30.18,75,1,75,0.00
2012-11-20,64.0,51.2,38.0,45.4,39.4,34.5,91,67,43,30.18,30.04,75,1,75,0.00
2012-11-21,67.0,53.1,42.0,43.2,39.5,36.8,84,62,40,30.23,30.09,75,2,75,0.00
2012-11-22,66.0,50.6,37.0,46.8,41.4,34.9,95,73,47,30.22,30.06,0,0,0,0.00
2012-11-23,54.0,46.1,34.0,48.9,36.4,23.8,96,69,53,30.17,29.98,0,0,0,0.01
2012-11-24,34.0,31.0,28.0,24.6,22.7,20.1,73,71,67,30.18,30.15,0,0,0,0.00
2012-11-26,51.0,44.9,29.0,39.1,34.3,24.2,96,68,50,30.18,30.09,0,0,0,0.04
2012-11-27,43.0,36.3,29.0,39.5,33.2,27.7,100,89,66,30.32,30.16,0,0,0,0.03
2012-11-28,43.0,31.2,23.0,35.2,26.6,21.3,100,85,53,30.44,30.29,0,0,0,0.00
2012-11-29,51.0,36.2,22.0,34.3,27.8,20.8,97,74,48,30.39,30.23,4,0,4,0.00
2012-11-30,57.0,45.1,36.0,44.8,36.6,28.5,88,72,60,30.27,30.15,0,0,0,0.00
2012-12-1,63.0,52.1,42.0,50.9,45.1,38.5,88,77,62,30.29,30.16,13,0,13,0.00
2012-12-2,62.0,56.8,53.0,59.1,52.9,46.7,100,87,72,30.19,30.09,0,0,0,0.49
2012-12-3,71.0,61.9,56.0,60.0,55.8,50.8,94,81,67,30.21,30.09,1,0,1,0.01
2012-12-4,61.0,55.8,43.0,60.7,53.6,43.0,100,93,77,30.23,30.03,26,0,26,0.91
2012-12-5,55.0,43.0,32.0,47.5,38.7,30.7,100,86,57,30.34,30.23,0,0,0,0.01
2012-12-6,52.0,41.6,30.0,50.0,38.9,28.5,100,91,72,30.25,29.98,0,0,0,0.00
2012-12-7,71.0,52.4,50.0,61.0,52.3,48.3,100,99,90,29.99,29.87,0,0,0,1.55
2012-12-8,58.0,54.2,49.0,57.0,53.8,49.0,100,99,87,30.01,29.85,0,0,0,0.35
2012-12-9,61.0,54.9,48.0,61.0,54.9,48.0,100,100,99,30.01,29.73,0,0,0,0.40
2012-12-10,56.0,42.9,31.0,56.0,42.9,30.8,100,100,99,29.95,29.67,0,0,0,0.81
2012-12-11,34.0,30.0,23.0,30.8,27.1,21.8,99,89,75,30.24,29.94,0,0,0,0.01
2012-12-12,46.0,30.4,20.0,34.9,25.3,19.8,100,84,47,30.39,30.24,0,0,0,0.00
2012-12-13,51.0,34.4,22.0,36.0,28.4,20.3,96,80,51,30.46,30.27,0,0,0,0.00
2012-12-14,56.0,39.0,26.0,35.2,29.4,24.5,96,72,39,30.34,30.14,0,0,0,0.00
2012-12-15,54.0,46.3,41.0,46.0,37.4,29.0,84,71,62,30.14,29.84,0,0,0,0.02
2012-12-17,59.0,51.0,45.0,56.7,50.2,45.0,100,97,84,29.70,29.51,40,4,40,0.42
2012-12-18,46.0,40.5,37.0,46.0,38.8,36.3,100,94,80,29.93,29.61,39,9,40,0.02
2012-12-19,51.0,42.7,37.0,41.6,38.2,35.4,95,84,68,30.06,29.82,48,6,48,0.00
2012-12-20,51.0,43.7,29.0,50.0,41.1,27.3,100,91,79,29.93,29.30,39,13,41,1.33
2012-12-21,31.0,27.2,25.0,29.2,24.4,21.8,99,89,81,30.10,29.62,44,16,44,0.02
2012-12-22,36.0,27.5,20.0,26.6,22.7,18.1,94,82,67,30.27,30.05,35,6,35,0.00
2012-12-23,51.0,38.0,28.0,35.9,29.2,20.5,89,71,54,30.05,29.89,75,4,75,0.00
2012-12-24,57.0,43.3,35.0,56.0,42.9,33.1,100,99,89,29.98,29.73,33,5,42,0.24
2012-12-25,36.0,33.2,31.0,33.5,30.8,29.0,98,91,81,30.12,29.91,75,6,75,0.00
2012-12-26,39.0,33.2,29.0,39.0,33.1,28.8,100,100,96,29.91,29.42,36,10,36,0.66
2012-12-27,31.0,29.0,27.0,28.8,26.8,24.8,99,91,85,30.15,29.91,75,6,75,0.00
2012-12-28,36.0,31.9,29.0,33.1,29.6,25.9,100,91,86,30.12,29.74,64,5,73,0.01
2012-12-29,32.0,29.4,24.0,32.0,29.3,22.5,100,99,94,30.22,29.65,75,19,75,0.00
2012-12-30,29.0,23.7,20.0,24.5,21.5,18.6,96,92,83,30.45,30.21,75,17,75,0.02
2012-12-31,35.0,29.4,19.0,32.5,27.0,18.0,98,91,83,30.34,30.05,75,27,75,0.05
2013-1-1,35.0,32.6,29.0,35.0,32.5,28.3,100,100,96,30.10,29.99,75,10,75,0.41